TimeEDT,TemperatureF,Dew PointF,Humidity,Sea Level PressureIn,VisibilityMPH,Wind Direction,Wind SpeedMPH,Gust SpeedMPH,PrecipitationIn,Events,Conditions,WindDirDegrees,DateUTC
12:13 AM,39.2,34.2,82,29.59,10.0,NW,9.2,16.1,N/A,,Overcast,310,2012-11-01 04:13:00
12:33 AM,39.0,34.3,83,29.59,10.0,NW,11.5,18.4,N/A,,Overcast,310,2012-11-01 04:33:00
12:50 AM,39.2,34.2,82,29.59,10.0,NW,13.8,19.6,N/A,,Overcast,310,2012-11-01 04:50:00
7:56 AM,40.1,35.2,83,29.60,10.0,WNW,11.5,-,N/A,,Overcast,300,2012-11-01 11:56:00
8:13 AM,40.3,34.9,81,29.61,10.0,WNW,9.2,-,N/A,,Overcast,300,2012-11-01 12:13:00
8:32 AM,40.6,34.9,80,29.61,10.0,WNW,10.4,17.3,N/A,,Overcast,300,2012-11-01 12:32:00
8:53 AM,41.0,34.9,79,29.61,10.0,NW,11.5,-,N/A,,Overcast,310,2012-11-01 12:53:00
9:13 AM,41.2,34.7,78,29.62,10.0,WNW,15.0,20.7,N/A,,Overcast,300,2012-11-01 13:13:00
9:33 AM,41.5,34.7,77,29.62,10.0,NW,13.8,20.7,N/A,,Overcast,310,2012-11-01 13:33:00
9:53 AM,41.9,34.7,76,29.62,10.0,WNW,9.2,17.3,N/A,,Overcast,300,2012-11-01 13:53:00
10:13 AM,41.9,34.2,74,29.62,10.0,WNW,20.7,-,N/A,,Overcast,300,2012-11-01 14:13:00
10:33 AM,42.4,34.0,72,29.63,10.0,NW,13.8,23.0,N/A,,Overcast,310,2012-11-01 14:33:00
10:53 AM,42.8,33.6,70,29.63,10.0,NW,13.8,23.0,N/A,,Overcast,310,2012-11-01 14:53:00
11:12 AM,43.3,33.4,68,29.63,10.0,NW,13.8,23.0,N/A,,Overcast,310,2012-11-01 15:12:00
11:33 AM,43.2,33.1,68,29.63,10.0,NW,15.0,24.2,N/A,,Overcast,310,2012-11-01 15:33:00
11:53 AM,43.9,33.3,66,29.63,10.0,NW,12.7,25.3,N/A,,Overcast,310,2012-11-01 15:53:00
12:12 PM,44.1,33.1,65,29.63,10.0,NW,13.8,18.4,N/A,,Overcast,310,2012-11-01 16:12:00
12:33 PM,44.4,33.3,65,29.63,10.0,WNW,12.7,29.9,N/A,,Light Drizzle,300,2012-11-01 16:33:00
12:53 PM,44.6,32.5,63,29.63,10.0,NW,17.3,23.0,N/A,,Overcast,320,2012-11-01 16:53:00
1:12 PM,46.0,32.5,59,29.62,10.0,NW,17.3,25.3,N/A,,Overcast,310,2012-11-01 17:12:00
1:33 PM,47.3,32.2,56,29.61,10.0,NW,18.4,25.3,N/A,,Mostly Cloudy,310,2012-11-01 17:33:00
1:53 PM,46.6,32.2,57,29.62,10.0,NW,20.7,27.6,N/A,,Mostly Cloudy,310,2012-11-01 17:53:00
2:12 PM,47.1,32.5,57,29.62,10.0,NW,16.1,23.0,N/A,,Mostly Cloudy,310,2012-11-01 18:12:00
2:33 PM,45.7,32.4,60,29.62,10.0,NW,21.9,27.6,N/A,,Overcast,310,2012-11-01 18:33:00
2:53 PM,46.6,32.0,57,29.62,10.0,NW,21.9,27.6,N/A,,Mostly Cloudy,320,2012-11-01 18:53:00
3:12 PM,46.2,32.4,58,29.62,10.0,WNW,13.8,20.7,N/A,,Mostly Cloudy,300,2012-11-01 19:12:00
3:33 PM,45.3,31.3,58,29.63,10.0,WNW,20.7,27.6,N/A,,Overcast,300,2012-11-01 19:33:00
3:53 PM,44.8,30.7,58,29.63,10.0,WNW,19.6,24.2,N/A,,Overcast,290,2012-11-01 19:53:00
4:12 PM,44.6,30.2,57,29.63,10.0,NW,19.6,26.5,N/A,,Overcast,310,2012-11-01 20:12:00
4:33 PM,44.1,30.2,58,29.64,10.0,WNW,16.1,24.2,N/A,,Overcast,290,2012-11-01 20:33:00
4:53 PM,43.7,30.7,60,29.65,10.0,NW,10.4,19.6,N/A,,Overcast,310,2012-11-01 20:53:00
5:12 PM,43.7,29.7,58,29.65,10.0,NW,19.6,25.3,N/A,,Overcast,310,2012-11-01 21:12:00
5:33 PM,42.8,30.0,61,29.66,10.0,NW,11.5,20.7,N/A,,Overcast,310,2012-11-01 21:33:00
5:53 PM,41.9,30.2,63,29.67,10.0,NW,10.4,13.8,N/A,,Overcast,310,2012-11-01 21:53:00
6:12 PM,41.5,29.8,63,29.67,10.0,WNW,6.9,-,N/A,,Overcast,300,2012-11-01 22:12:00
6:33 PM,41.2,28.2,60,29.68,10.0,WNW,10.4,16.1,N/A,,Mostly Cloudy,300,2012-11-01 22:33:00
6:53 PM,41.2,28.6,61,29.68,10.0,NW,5.8,-,N/A,,Overcast,310,2012-11-01 22:53:00
7:12 PM,40.5,27.3,59,29.69,10.0,NW,9.2,16.1,N/A,,Overcast,320,2012-11-01 23:12:00
7:33 PM,40.3,27.3,60,29.70,10.0,NW,10.4,-,N/A,,Overcast,320,2012-11-01 23:33:00
7:53 PM,40.6,27.7,60,29.70,10.0,NW,11.5,20.7,N/A,,Overcast,310,2012-11-01 23:53:00
8:12 PM,40.5,27.1,59,29.70,10.0,NW,9.2,17.3,N/A,,Overcast,310,2012-11-02 00:12:00
8:33 PM,40.1,26.8,59,29.70,10.0,WNW,10.4,16.1,N/A,,Overcast,290,2012-11-02 00:33:00
8:53 PM,40.3,26.6,58,29.70,10.0,NW,12.7,20.7,N/A,,Overcast,310,2012-11-02 00:53:00
9:12 PM,40.6,27.1,59,29.70,10.0,WNW,8.1,18.4,N/A,,Overcast,300,2012-11-02 01:12:00
9:33 PM,40.1,28.4,63,29.71,10.0,WNW,9.2,-,N/A,,Overcast,300,2012-11-02 01:33:00
9:53 PM,39.7,29.8,68,29.71,10.0,WNW,10.4,17.3,N/A,,Overcast,300,2012-11-02 01:53:00
10:13 PM,39.4,30.2,70,29.72,10.0,WNW,6.9,-,N/A,,Overcast,300,2012-11-02 02:13:00
10:33 PM,39.2,30.2,70,29.72,10.0,WNW,9.2,-,N/A,,Overcast,300,2012-11-02 02:33:00
10:53 PM,39.2,30.2,70,29.72,10.0,WNW,10.4,-,N/A,,Overcast,300,2012-11-02 02:53:00
11:13 PM,39.0,30.2,71,29.73,10.0,NW,13.8,19.6,N/A,,Overcast,310,2012-11-02 03:13:00
11:33 PM,38.7,30.0,71,29.73,10.0,WNW,6.9,18.4,N/A,,Overcast,300,2012-11-02 03:33:00
11:53 PM,38.7,30.0,71,29.73,10.0,NW,15.0,18.4,N/A,,Overcast,310,2012-11-02 03:53:00